{"data":{"norad_id":53086,"intl_designator":"2022-077AV","name":"STARLINK-4318","alt_names":[],"object_type":"PAYLOAD","status":"ACTIVE","operator":null,"country":"US","launch_date":"2022-07-11","launch_site_code":"AFWTR","launch_vehicle":null,"mission":null,"orbit_class":"UNKNOWN","rcs_meters":null,"size_class":null,"mass_kg":null,"dimensions":null,"purposes":["comms"],"wikipedia_slug":null,"has_3d_model":false,"image_url":null,"decayed_at":null,"tle_current":{"epoch":"2026-09-19T17:38:58.556544Z","epoch_age_seconds":138378,"freshness":"FRESH","line1":"1 53086U 22077AV  26262.73539996  .00000094  00000+0  52502-5 0  9990","line2":"2 53086  97.2851  77.4812 0001890  96.2479 263.8979 15.33433181230179","mean_motion":15.33433181,"eccentricity":0.000189,"inclination_deg":97.2851,"raan_deg":77.4812,"arg_perigee_deg":96.2479,"mean_anomaly_deg":263.8979,"bstar":5.2502e-6,"rev_number":23017,"period_min":93.906928442812,"perigee_km":464.28487753341,"apogee_km":466.87180193183,"semimajor_km":6843.7153397326,"source":"CELESTRAK","updated_at":"2026-09-20T09:00:40.177896Z"}}}